Flag for Russia

Past Weather in Chelyabinsk, Russia — Yesterday and Last 2 Weeks

Currently: 5 °F. Ice fog. (Weather station: Chelyabinsk-Balandino, Russia). See more current weather

Past Weather in Chelyabinsk — Graph

°F

Chelyabinsk Temperature Yesterday

Maximum temperature yesterday: 12 °F (at 1:30 am)
Minimum temperature yesterday: 5 °F (at 7:00 pm)
Average temperature yesterday: 10 °F

High & Low Weather Summary for the Past Weeks

 TemperatureHumidityPressure
High34 °F (Nov 20, 3:00 pm)100% (Nov 18, 2:00 am)30.95 "Hg (Nov 18, 2:00 am)
Low-2 °F (Nov 29, 8:30 am)31% (Nov 21, 4:30 pm)30.21 "Hg (Nov 14, 6:00 pm)
Average15 °F77%30.51 "Hg
* Reported Nov 14 6:00 pm — Nov 29 6:30 pm, Chelyabinsk. Weather by CustomWeather, © 2020

Note: Actual official high and low records may vary slightly from our data, if they occured in-between our weather recording intervals... More about our weather records

Chelyabinsk Weather History for the Previous 24 Hours

Scroll right to see more
 ConditionsComfort  
Time TempWeatherWind HumidityBarometerVisibility
6:30 pm
Sun, Nov 29
3 °FIce fog.3 mph92%30.95 "Hg2 mi
6:00 pm7 °FIce fog.No wind92%30.95 "Hg2 mi
5:30 pm5 °FIce fog.No wind92%30.95 "Hg2 mi
5:00 pm9 °FIce fog.1 mph85%30.95 "Hg2 mi
4:30 pm7 °FIce fog.1 mph92%30.95 "Hg2 mi
4:00 pm9 °FIce fog.3 mph85%30.95 "Hg2 mi
3:30 pm9 °FIce fog.1 mph92%30.92 "Hg2 mi
3:00 pm9 °FIce fog.No wind92%30.92 "Hg2 mi
2:30 pm10 °FIce fog.No wind85%30.92 "Hg2 mi
2:00 pm9 °FIce fog.3 mph92%30.92 "Hg2 mi
1:30 pm9 °FIce fog.1 mph92%30.92 "Hg2 mi
1:00 pm9 °FIce fog.3 mph85%30.92 "Hg2 mi
12:30 pm9 °FIce fog.1 mph85%30.92 "Hg2 mi
11:30 am5 °FIce fog.3 mph92%30.92 "Hg2 mi
11:00 am3 °FIce fog.6 mph85%30.92 "Hg2 mi
10:30 am3 °FIce fog.3 mph85%30.92 "Hg2 mi
10:00 am1 °FIce fog.6 mph85%30.92 "Hg2 mi
9:30 am0 °FIce fog.6 mph84%30.92 "Hg2 mi
9:00 am0 °FIce fog.6 mph84%30.89 "Hg2 mi
8:30 am-2 °FIce fog.3 mph92%30.89 "Hg2 mi
7:30 am0 °FIce fog.3 mph84%30.89 "Hg2 mi
7:00 am0 °FIce fog.3 mph92%30.86 "Hg2 mi
6:30 am0 °FIce fog.3 mph84%30.86 "Hg2 mi
6:00 am1 °FIce fog.3 mph85%30.86 "Hg2 mi
5:30 am0 °FIce fog.6 mph84%30.86 "Hg2 mi
5:00 am0 °FIce fog.3 mph84%30.83 "Hg2 mi
4:30 am0 °FIce fog.3 mph84%30.83 "Hg2 mi
4:00 am0 °FIce fog.6 mph84%30.83 "Hg2 mi
3:30 am1 °FIce fog.6 mph85%30.83 "Hg2 mi
3:00 am0 °FIce fog.3 mph84%30.83 "Hg2 mi
2:30 am0 °FIce fog.3 mph92%30.80 "Hg2 mi
2:00 am1 °FIce fog.6 mph85%30.80 "Hg2 mi
1:30 am1 °FIce fog.6 mph92%30.80 "Hg2 mi
1:00 am3 °FIce fog.3 mph85%30.77 "Hg2 mi
12:30 am3 °FIce fog.6 mph92%30.77 "Hg2 mi
12:00 am3 °FIce fog.6 mph85%30.77 "Hg2 mi
11:30 pm
Sat, Nov 28
5 °FIce fog.6 mph92%30.77 "Hg2 mi
11:00 pm5 °FIce fog.6 mph85%30.77 "Hg2 mi
10:30 pm5 °FIce fog.6 mph92%30.74 "Hg2 mi
10:00 pm5 °FIce fog.6 mph92%30.74 "Hg2 mi
9:30 pm5 °FIce fog.6 mph85%30.74 "Hg2 mi
9:00 pm5 °FIce fog.3 mph85%30.74 "Hg2 mi
8:30 pm5 °FIce fog.6 mph92%30.72 "Hg2 mi
8:00 pm7 °FIce fog.8 mph92%30.72 "Hg2 mi
7:30 pm7 °FIce fog.8 mph92%30.69 "Hg2 mi
7:00 pm5 °FIce fog.6 mph92%30.69 "Hg2 mi
Weather by CustomWeather, © 2020

See weather overview